Lid_Strength_Index
1 1 1 1 1 1 1 1 1 2 2 2 2 2 2 2 3 4 5 3 7 11 10 8 7 8 7 6 10 7 8 7 8 12 12 12 13 12 12 11 12 13 14 14 14 17 18 9 9 13 11 8 9 8
2 1 1 1 1 1 1 1 1 2 2 2 2 2 2 2 3 3 7 4 4 9 10 7 6 3 3 3 6 6 7 7 7 10 9 9 12 11 12 15 9 13 11 12 12 12 9 8 9 8 8 10 10 10
2 2 1 1 2 1 1 1 1 2 2 2 2 2 2 2 2 3 5 4 6 9 10 9 9 3 1 1 1 7 6 5 6 4 7 9 12 9 13 12 11 9 7 10 10 9 8 8 7 7 8 9 9 9
2 2 1 1 1 2 1 1 1 1 2 2 2 2 2 2 2 3 5 4 5 8 14 13 5 6 1 1 2 2 4 3 4 5 8 9 11 7 10 9 10 8 8 10 10 9 8 7 6 6 7 8 9 9
2 2 1 1 1 1 1 2 2 2 2 2 2 2 2 2 2 3 4 4 3 8 14 12 9 5 3 2 2 2 3 5 6 8 9 10 8 8 8 8 10 7 9 10 11 7 7 8 6 5 7 7 8 8
2 2 1 1 1 1 1 2 1 2 2 2 2 2 2 2 2 5 9 4 3 4 11 15 9 9 5 3 3 4 4 5 6 7 8 7 6 7 11 12 8 6 6 5 7 5 5 5 5 5 6 6 6 8
1 1 1 1 1 1 1 1 2 2 2 2 2 2 2 2 4 7 9 6 3 4 9 12 11 6 7 5 4 5 4 5 6 7 8 8 7 7 10 12 8 6 5 5 5 5 6 6 7 6 7 7 8 9
2 2 2 2 1 1 1 2 2 2 2 2 2 2 2 2 3 7 4 2 2 6 8 12 12 8 5 7 8 5 7 6 6 7 7 8 7 8 12 8 6 6 5 5 5 5 5 6 7 8 10 10 10 9
2 2 2 2 2 2 1 2 2 2 2 2 2 2 5 6 9 7 4 3 2 7 12 10 11 12 6 7 6 7 6 10 6 9 9 8 10 12 9 8 7 6 6 6 6 6 8 10 8 9 12 13 13 10
2 2 2 2 2 2 2 2 2 2 2 2 6 9 12 8 6 7 8 10 10 9 9 11 6 10 7 7 9 8 7 10 12 9 7 10 11 7 6 6 6 6 6 7 10 13 14 13 11 12 14 13 13 13
2 2 2 2 2 2 2 2 2 2 3 9 11 11 8 7 9 11 14 12 8 10 8 8 7 9 7 10 10 8 10 10 13 11 11 11 12 9 6 6 8 10 10 11 11 12 13 11 11 14 16 17 17 18
2 2 2 2 2 2 2 2 2 4 6 9 9 9 9 11 13 15 14 10 10 15 12 13 13 12 8 6 9 9 11 11 14 11 12 14 10 8 8 10 15 16 16 18 18 17 18 18 20 20 20 20 21 21
3 2 2 2 3 2 2 3 3 3 7 10 11 14 14 13 17 17 17 14 14 12 12 13 14 13 9 9 9 10 12 13 12 13 14 11 10 14 16 20 22 23 23 22 23 23 23 23 25 25 24 24 24 24
2 2 2 3 2 3 3 3 3 6 10 13 15 18 16 17 16 12 11 11 10 12 12 13 14 14 10 10 10 13 13 13 15 16 15 10 11 16 22 23 24 25 24 24 24 25 26 27 26 26 27 26 27 26
2 3 2 3 3 4 4 4 4 9 12 15 16 19 18 13 12 11 13 13 11 13 13 13 13 13 13 11 11 15 16 15 14 14 10 9 18 23 25 24 24 25 27 26 26 26 27 28 28 27 26 26 26 26
3 4 6 5 5 5 5 8 11 11 15 16 17 18 16 15 12 10 11 11 12 12 13 14 15 15 13 11 15 14 15 16 12 11 15 22 25 25 25 25 25 26 26 26 26 27 26 28 28 26 26 27 27 27
6 8 6 5 5 6 7 11 12 14 15 17 18 16 16 16 13 12 12 12 13 13 15 14 17 15 15 13 13 12 13 10 15 20 22 22 24 26 27 27 28 28 27 27 27 27 27 26 28 29 28 24 26 25
8 8 7 5 8 10 13 13 14 16 19 17 19 14 18 16 15 16 15 15 14 15 15 16 19 19 16 15 13 18 21 24 23 23 24 25 26 26 25 25 26 26 26 26 27 27 28 29 28 26 25 25 26 26
9 8 5 6 9 12 14 17 16 19 18 18 19 20 19 18 19 19 17 17 17 16 18 18 20 19 16 26 29 28 26 26 24 25 27 28 27 28 28 27 27 27 27 27 27 26 26 26 26 26 26 26 26 24
6 6 6 7 10 14 17 18 18 18 19 18 21 21 19 18 20 19 19 19 19 19 21 21 19 26 28 29 30 31 29 28 26 25 26 27 27 28 28 28 27 28 28 28 28 28 27 27 26 26 25 25 26 25
13 14 13 13 16 14 14 18 18 19 21 20 23 22 20 22 21 21 21 20 21 20 19 26 28 28 28 30 30 30 29 30 29 29 27 26 28 28 27 28 29 29 29 28 28 27 28 28 27 26 26 26 26 25
18 15 18 17 16 17 19 22 21 22 22 22 23 25 23 23 23 23 25 24 24 28 29 30 30 30 31 30 31 31 32 33 30 30 30 30 27 27 27 29 30 29 29 28 28 28 28 27 27 27 27 27 26 26
17 18 22 21 19 20 24 22 22 22 23 24 25 24 25 26 26 27 28 30 30 29 29 31 30 30 32 31 31 31 32 33 31 30 30 30 30 30 31 30 29 30 30 28 27 28 28 28 28 28 27 27 26 26
21 29 29 29 28 28 26 26 23 24 24 25 25 26 27 26 26 27 28 32 31 29 30 30 30 30 29 31 31 29 30 33 32 30 30 32 30 28 29 29 29 28 28 28 29 28 28 27 28 27 27 27 26 26
23 33 29 33 30 29 30 30 30 27 28 27 27 26 27 26 27 29 33 33 32 30 31 31 31 31 32 31 29 29 32 33 32 33 31 32 31 30 28 27 28 27 27 29 28 28 28 28 28 27 27 27 28 27
33 36 32 35 33 31 33 32 32 31 29 28 28 28 27 27 29 31 34 33 33 31 32 32 33 33 32 31 32 31 31 32 34 34 31 31 32 32 32 32 31 28 26 28 29 29 30 29 29 28 28 28 26 26
36 36 32 29 30 30 31 29 29 30 31 32 32 32 30 31 32 34 30 29 31 30 30 30 31 32 32 32 31 30 30 30 33 31 30 32 32 32 32 32 31 28 27 28 28 28 29 29 29 29 29 27 26 25
34 33 37 34 33 31 34 33 33 33 32 30 31 33 34 35 35 31 29 27 29 29 30 29 29 31 31 31 30 31 30 30 30 33 34 34 34 33 32 31 29 25 26 27 27 27 28 28 29 29 27 26 25 23
34 34 34 41 39 34 35 34 33 30 28 30 32 32 32 29 28 28 27 27 28 29 31 32 31 31 30 29 29 29 30 31 31 31 32 32 31 29 27 27 27 27 26 27 26 24 25 25 24 23 24 24 23 22
36 36 35 40 39 37 31 29 29 27 27 27 27 28 28 27 25 24 25 26 29 31 31 31 31 32 33 33 32 31 29 31 32 33 34 33 32 29 29 29 27 26 26 27 27 26 24 24 23 24 24 24 23 23
39 35 34 32 33 28 27 26 26 25 26 27 26 28 29 28 26 25 25 27 28 28 30 31 31 31 32 32 33 33 33 30 31 31 31 31 31 30 28 26 26 26 26 26 26 26 26 26 26 26 26 26 25 24
36 36 33 33 30 27 26 27 27 28 27 28 28 28 29 29 31 27 26 27 29 30 30 31 32 32 30 30 31 31 31 31 31 31 32 30 29 26 25 25 26 26 25 25 26 27 27 27 28 27 27 27 26 25
36 32 29 28 28 28 27 28 28 29 28 29 30 30 30 31 33 28 25 26 28 30 30 30 30 30 30 30 30 31 30 30 30 27 26 24 23 23 24 25 25 25 25 26 27 27 28 28 28 28 28 28 27 27